CT1ETE Weather Reports


time (UTC)temp
C
wind
direction
speed
KPH
gust
KPH
rain 1hr
cm
rain 24hr
cm
rain mn
cm
humidity
%
barometer
mb
20260507155332 18 248 17.7 29.0 0.00 0.00 0.00 58 1008.5
20260507154535 18 224 17.7 29.0 0.00 0.00 0.00 59 1008.6
20260507152332 19 238 11.3 27.4 0.00 0.00 0.00 57 1008.6
20260507150832 19 234 14.5 27.4 0.00 0.00 0.00 56 1008.8
20260507145332 19 246 12.9 29.0 0.00 0.00 0.00 58 1008.8
20260507143833 18 244 14.5 33.8 0.00 0.00 0.00 60 1008.9
20260507142333 18 226 14.5 30.6 0.00 0.00 0.00 59 1009.0
20260507140830 18 258 16.1 30.6 0.00 0.00 0.00 61 1009.3
20260507135331 18 244 14.5 27.4 0.00 0.00 0.00 64 1009.3
20260507133831 18 220 17.7 29.0 0.00 0.00 0.00 62 1009.4
20260507132329 18 242 17.7 29.0 0.00 0.00 0.00 63 1009.3
20260507130829 18 250 17.7 29.0 0.00 0.00 0.00 62 1009.4
20260507125329 18 236 16.1 30.6 0.00 0.00 0.00 64 1009.4
20260507123828 18 229 17.7 32.2 0.00 0.00 0.00 65 1009.5
20260507122329 17 232 16.1 30.6 0.00 0.00 0.00 69 1009.6
20260507121536 17 244 17.7 30.6 0.00 0.00 0.00 68 1009.7
20260507115329 17 237 14.5 27.4 0.00 0.00 0.00 68 1009.9
20260507115218 17 244 14.5 24.1 0.00 0.00 0.00 69 1009.8
20260507112328 17 208 16.1 24.1 0.00 0.00 0.00 68 1009.7
20260507110829 16 230 11.3 22.5 0.00 0.00 0.00 69 1009.6
20260507110028 16 277 9.7 19.3 0.00 0.00 0.00 68 1009.7
20260507103829 17 244 9.7 19.3 0.00 0.03 0.00 66 1009.6
20260507102329 17 235 8.0 19.3 0.00 0.03 0.00 64 1009.6
20260507100829 17 248 11.3 20.9 0.00 0.03 0.00 65 1009.6
20260507095329 16 247 8.0 14.5 0.00 0.03 0.00 68 1009.5
20260507093829 16 245 8.0 14.5 0.00 0.03 0.00 70 1009.6
20260507092329 16 243 8.0 14.5 0.00 0.03 0.00 69 1009.6
20260507091539 16 237 8.0 12.9 0.00 0.03 0.00 68 1009.6
20260507085329 16 98 1.6 11.3 0.00 0.03 0.00 66 1009.5
20260507083828 16 130 4.8 12.9 0.00 0.03 0.00 66 1009.5
20260507082329 15 92 6.4 12.9 0.00 0.03 0.00 68 1009.3
20260507080826 15 135 4.8 11.3 0.00 0.03 0.00 72 1009.2
20260507075325 13 80 4.8 11.3 0.00 0.03 0.00 75 1009.2
20260507073825 12 95 6.4 17.7 0.00 0.03 0.00 75 1009.2
20260507072325 12 60 8.0 16.1 0.00 0.03 0.00 77 1009.3
20260507071521 12 120 8.0 17.7 0.00 0.03 0.00 80 1009.5
20260507065326 12 150 12.9 17.7 0.00 0.03 0.00 81 1009.7
20260507063826 12 78 4.8 9.7 0.00 0.03 0.00 82 1009.6
20260507062325 11 123 0.0 9.7 0.00 0.03 0.00 83 1009.7
20260507060819 11 123 4.8 9.7 0.00 0.03 0.00 85 1009.7
20260507055319 10 121 3.2 9.7 0.00 0.03 0.00 86 1009.6
20260507053820 10 231 3.2 4.8 0.00 0.03 0.00 85 1009.5
20260507052318 10 231 1.6 4.8 0.00 0.03 0.00 85 1009.5
20260507051506 10 231 3.2 8.0 0.00 0.03 0.00 85 1009.4
20260507050010 10 109 1.6 4.8 0.00 0.03 0.00 85 1009.4
20260507043816 10 109 1.6 3.2 0.00 0.03 0.00 85 1009.5
20260507042315 10 109 0.0 3.2 0.00 0.03 0.00 85 1009.5
20260507040815 10 109 1.6 4.8 0.00 0.03 0.00 85 1009.6
20260507035315 10 109 0.0 3.2 0.00 0.03 0.00 85 1009.7
20260507035216 10 109 0.0 4.8 0.00 0.03 0.00 85 1009.7
20260507032315 10 109 3.2 6.4 0.00 0.03 0.00 84 1009.7
20260507031531 10 109 3.2 6.4 0.00 0.03 0.00 85 1009.7
20260507025313 10 109 0.0 6.4 0.00 0.03 0.00 84 1009.8
20260507024518 10 109 0.0 0.0 0.00 0.03 0.00 84 1009.8
20260507022314 10 109 0.0 0.0 0.00 0.03 0.00 84 1010.0
20260507020811 10 109 0.0 0.0 0.00 0.03 0.00 83 1010.1
20260507020711 11 109 0.0 0.0 0.00 0.03 0.00 83 1010.1
20260507013811 11 109 0.0 0.0 0.00 0.03 0.00 83 1010.2
20260507013708 11 109 0.0 0.0 0.00 0.03 0.00 83 1010.4
20260507010809 11 109 0.0 4.8 0.00 0.03 0.00 83 1010.3
20260507010004 11 109 3.2 6.4 0.00 0.03 0.00 84 1010.3
20260507003805 10 109 6.4 11.3 0.00 0.03 0.00 84 1010.4
20260507002306 11 174 4.8 9.7 0.00 0.03 0.00 84 1010.5
20260507000805 10 175 1.6 6.4 0.00 0.03 0.00 84 1010.6
20260506235306 11 175 3.2 8.0 0.00 0.03 0.00 83 1010.7
20260506233802 11 175 3.2 9.7 0.00 0.03 0.00 81 1010.7
20260506232306 11 176 3.2 6.4 0.00 0.03 0.00 80 1010.8
20260506230801 11 176 3.2 6.4 0.00 0.03 0.00 81 1010.7
20260506225301 11 225 1.6 4.8 0.00 0.03 0.03 81 1010.8
20260506223801 12 225 1.6 3.2 0.00 0.03 0.03 80 1010.9
20260506222259 12 225 0.0 3.2 0.00 0.03 0.03 80 1011.0
20260506220759 12 225 3.2 4.8 0.00 0.03 0.03 81 1011.2
20260506215305 12 227 3.2 3.2 0.00 0.03 0.03 81 1011.2
20260506213752 12 227 0.0 3.2 0.00 0.03 0.03 80 1011.1
20260506212253 12 227 0.0 3.2 0.00 0.03 0.03 80 1011.2
20260506210753 12 227 0.0 4.8 0.00 0.03 0.03 79 1011.3
20260506205253 12 227 4.8 8.0 0.00 0.03 0.03 77 1011.3
20260506203752 13 226 6.4 8.0 0.00 0.03 0.03 77 1011.3
20260506202947 13 225 4.8 9.7 0.00 0.03 0.03 76 1011.2
20260506200752 13 259 3.2 11.3 0.00 0.03 0.03 76 1011.2
20260506195253 13 259 6.4 12.9 0.00 0.03 0.03 75 1011.1
20260506193750 13 254 6.4 11.3 0.00 0.03 0.03 75 1011.0
20260506192251 14 299 8.0 16.1 0.00 0.03 0.03 73 1010.9
20260506190750 14 271 8.0 14.5 0.00 0.03 0.03 72 1010.8
20260506185250 15 252 6.4 14.5 0.00 0.03 0.03 70 1010.8
20260506183750 15 280 4.8 14.5 0.00 0.03 0.03 70 1010.9
20260506182250 15 247 6.4 16.1 0.00 0.03 0.03 69 1011.0
20260506180750 15 276 12.9 20.9 0.00 0.03 0.03 69 1011.0
20260506175251 16 275 14.5 24.1 0.00 0.03 0.03 68 1010.9
20260506173750 16 271 11.3 20.9 0.00 0.03 0.03 67 1010.9
20260506172250 16 230 9.7 19.3 0.00 0.03 0.03 64 1010.9
20260506170750 16 279 9.7 17.7 0.00 0.03 0.03 61 1010.9
20260506165251 16 303 8.0 19.3 0.00 0.03 0.03 60 1011.0
20260506163749 16 302 9.7 19.3 0.00 0.03 0.03 60 1011.2
20260506162950 17 253 4.8 12.9 0.00 0.03 0.03 56 1011.1
20260506160751 17 250 4.8 12.9 0.00 0.03 0.03 59 1011.2